Location: ??
(34.9388°N, 135.8024°E)
Time: 11:31:24
(UTC+00:00)

Daily predictions for brighter satellites

Satellite Brightness Start Highest point End
(mag) Time Altitude Azimuth Time Altitude Azimuth Time Altitude Azimuth
STARLINK-1103 3.9 12:01:09 10° NW 12:05:15 58° NE 12:06:09 46° E
Okean 1 Rocket 3.0 12:00:48 10° N 12:05:15 85° W 12:06:45 41° S
Terra 3.3 12:05:05 21° E 12:05:45 22° ENE 12:09:19 10° NNE
Cosmos 1455 Rocket 4.4 12:03:30 10° NNE 12:06:56 24° ENE 12:06:56 24° ENE
Cosmos 1842 3.7 12:08:16 43° E 12:08:16 43° E 12:11:41 10° NNE
APEX 4.3 12:02:59 10° SSW 12:09:44 77° ESE 12:15:23 10° NNE
STARLINK-1101 3.7 12:06:06 10° NW 12:10:14 65° NE 12:10:56 53° E
H-2A ROCKET BODY 3.7 12:05:12 10° SW 12:10:32 46° SSE 12:34:10 10° E
CARTOSAT-1 4.3 12:11:51 36° E 12:12:10 37° ENE 12:16:09 10° N
Cosmos 1656 Rocket 3.9 12:11:19 41° SE 12:12:20 45° ESE 12:17:39 10° NE
Cosmos 1733 3.8 12:10:00 10° N 12:13:16 40° ENE 12:13:16 40° ENE
STARLINK-1102 3.6 12:11:06 10° NW 12:15:14 73° NE 12:15:45 63° E
SAR-Lupe-2 4.1 12:12:44 10° N 12:16:17 56° WNW 12:17:23 37° SW
Resurs 01 Rocket 3.2 12:16:39 18° SSW 12:19:13 30° W 12:23:09 10° NW
USA 245 3.8 12:20:06 38° NNW 12:20:06 38° NNW 12:21:47 10° NNW
Cosmos 2082 Rocket 4.0 12:14:49 10° NW 12:19:19 24° WSW 12:23:16 12° SSW
USA 238 DEB 4.0 12:12:07 10° NNW 12:19:22 64° ENE 12:22:32 36° SE
USA 238 4.0 12:12:13 10° NNW 12:19:28 64° ENE 12:22:39 36° ESE
STARLINK-1111 3.4 12:16:04 10° NW 12:20:13 81° NE 12:20:32 73° ESE
Cosmos 2369 Rocket 2.4 12:14:36 10° SSW 12:20:15 71° WNW 12:25:55 10° NNE
Cosmos 1992 Rocket 4.2 12:20:41 48° ESE 12:21:01 48° ESE 12:26:00 10° NNE
IGS 5A 3.4 12:20:33 62° S 12:21:11 81° WSW 12:25:21 10° NNW
Cosmos 1271 Rocket 4.3 12:25:38 25° NE 12:25:38 25° NE 12:27:47 10° NNE
STARLINK-1073 3.4 12:21:01 10° NW 12:25:11 90° NE 12:25:18 84° SE
ATLAS CENTAUR R/B 1.3 12:28:14 73° S 12:28:37 83° ESE 12:32:53 10° NNE
Cosmos 1092 Rocket 4.0 12:25:43 29° SSW 12:29:03 79° W 12:35:14 10° N
STARLINK-1121 3.5 12:25:59 10° NW 12:30:04 81° WSW 12:30:04 81° WSW
Okean 2 3.7 12:29:38 52° SW 12:30:23 64° W 12:34:32 10° N
STARLINK-1106 3.7 12:31:00 10° NW 12:34:52 70° W 12:34:52 70° W
OAO 1 4.4 12:33:38 10° W 12:39:10 89° S 12:40:25 55° E
ERS-1 Rocket 2.8 12:39:17 68° SSE 12:39:56 84° ENE 12:44:59 10° NNW
STARLINK-1112 3.9 12:35:59 10° NW 12:39:39 59° W 12:39:39 59° W
Cosmos 1428 Rocket 4.4 12:40:12 45° S 12:42:19 88° E 12:48:37 10° N
Cosmos 1544 Rocket 4.3 12:40:15 10° N 12:43:44 42° NE 12:43:44 42° NE
STARLINK-1128 4.2 12:40:59 10° NW 12:44:25 51° W 12:44:25 51° W
COSMOS 2455 2.7 12:46:10 58° S 12:47:15 72° ESE 12:53:15 10° NNE
SL-27 R/B 3.7 12:46:18 10° NNW 12:48:44 41° NNW 12:48:44 41° NNW
STARLINK-1113 4.5 12:46:01 10° NW 12:49:13 43° W 12:49:13 43° W
SL-8 R/B 3.9 12:51:12 10° WNW 12:55:30 62° WSW 12:55:30 62° WSW
Cosmos 968 Rocket 3.5 12:52:46 10° N 12:57:46 63° ENE 12:57:46 63° ENE
Cosmos 1242 Rocket 3.8 12:58:49 40° NW 12:58:49 40° NW 13:01:35 10° N
CENTAUR R/B 3.3 12:50:48 10° NNW 12:59:07 69° ENE 13:02:04 45° ESE
ATLAS 3B R/B 3.8 12:59:32 10° NNW 13:05:41 34° NE 13:07:55 28° E
Cosmos 1025 Rocket 3.8 13:13:29 49° N 13:13:29 49° N 13:16:41 10° N
S3M 4.2 13:06:38 10° N 13:12:43 54° E 13:12:55 54° E
NOSS 3-2 (C) 4.1 13:09:38 10° NNW 13:17:34 85° WSW 13:19:36 57° SSE
Thor Agena Rocket 4.1 13:13:47 10° NNE 13:17:53 48° ENE 13:17:53 48° ENE
Cosmos 1553 Rocket 3.8 13:17:45 10° N 13:23:59 86° W 13:24:20 80° SSW
Meteor 2-10 4.4 13:22:18 10° N 13:26:26 55° NNE 13:26:26 55° NNE
Meteor 2-8 Rocket 4.3 13:21:13 10° N 13:27:24 74° E 13:27:26 74° E
SPOT 5 4.2 13:32:34 34° W 13:32:44 34° W 13:37:33 10° NNW
Cosmos 1503 Rocket 4.3 13:30:26 10° NNW 13:35:07 67° NW 13:35:07 67° NW
Cosmos 2266 Rocket 3.8 13:41:20 83° NNE 13:41:20 83° NNE 13:47:09 10° N
Cosmos 1655 Rocket 4.1 13:40:46 64° WSW 13:41:15 67° W 13:47:29 10° N
Cosmos 1833 4.4 13:36:24 10° NNW 13:41:26 63° WNW 13:41:26 63° WNW
Terra 3.2 13:43:57 31° W 13:43:57 31° W 13:47:32 10° NNW
RESURS DK-1 4.2 13:45:52 28° N 13:45:52 28° N 13:47:57 10° NNE
Cosmos 1726 4.5 13:43:14 10° N 13:44:43 23° N 13:44:43 23° N
SeaSat 1 3.3 13:48:52 10° NNE 13:52:13 44° NNE 13:52:13 44° NNE
Cosmos 1953 4.4 13:51:40 10° NNW 13:53:32 26° NNW 13:53:32 26° NNW
Cosmos 883 Rocket 4.5 14:03:43 10° N 14:09:17 74° NNW 14:09:17 74° NNW
CZ-4C R/B 3.9 14:13:53 20° ENE 14:13:53 20° ENE 14:15:52 10° NE
Cosmos 2227 Rocket 4.1 14:09:32 10° NNE 14:13:35 20° ENE 14:14:21 19° ENE
BREEZE-M DEB (TANK) 4.2 14:10:47 10° WSW 14:17:27 31° NW 14:20:24 10° NNE
Meteor 2-5 Rocket 4.2 14:19:33 57° N 14:19:33 57° N 14:24:00 10° N
Milstar 3 Cent rocket 4.5 14:08:37 10° WSW 14:19:35 69° S 14:44:12 10° E
ATLAS 3B CENTAUR R/B 4.3 14:11:33 10° W 14:17:39 26° WSW 14:17:39 26° WSW
Cosmos 2098 Rocket 4.4 14:23:40 64° WSW 14:24:08 65° W 14:31:35 10° N
Timation 2 Rocket 4.2 14:35:26 10° NNW 14:40:31 62° NW 14:40:31 62° NW
ALOS 2 4.5 14:46:48 28° NNW 14:46:48 28° NNW 14:48:54 10° NNW
CENTAUR R/B 4.4 14:42:38 10° NW 14:49:15 27° WSW 14:49:15 27° WSW
Cosmos 1980 Rocket 3.9 14:56:48 22° ENE 14:56:48 22° ENE 14:59:35 10° NE
ATLAS 3B R/B 3.5 14:49:57 10° NW 14:55:09 41° W 14:55:09 41° W
Nadezhda 1 Rocket 4.1 15:12:13 10° N 15:17:53 71° NNE 15:17:53 71° NNE
Cosmos 2297 Rocket 2.7 15:14:47 10° NNW 15:19:09 55° NNW 15:19:09 55° NNW
Cosmos 2219 3.9 15:16:31 10° NNW 15:20:31 47° NW 15:20:31 47° NW
Lacrosse 4 Rocket 3.6 15:23:20 10° N 15:25:38 25° NNE 15:25:38 25° NNE
BREEZE M DEB (TANK) 4.3 15:27:17 63° SSE 15:27:51 65° SE 15:52:12 10° NE
Cosmos 2082 4.3 15:28:13 10° N 15:33:21 50° NE 15:33:21 50° NE
Cosmos 2278 4.1 15:40:12 59° NNE 15:40:12 59° NNE 15:44:47 10° NNE
Cosmos 1697 Rocket 3.2 15:42:06 53° NNW 15:42:06 53° NNW 15:46:53 10° NNE
SJ 16-02 3.3 15:38:10 10° NNW 15:40:09 26° NNW 15:40:09 26° NNW
Cosmos 1937 Rocket 4.2 15:40:09 10° N 15:44:25 53° NNE 15:44:25 53° NNE
Cosmos 1898 Rocket 4.3 15:46:43 10° NNW 15:50:27 46° NNW 15:50:27 46° NNW
Cosmos 2227 Rocket 3.1 15:52:26 10° NNW 15:56:08 38° NW 15:56:08 38° NW
CZ-4C R/B 3.6 15:59:02 25° NW 15:59:33 25° NW 16:04:12 10° N
Resurs 1-4 Rocket 3.0 15:58:45 10° NNE 16:03:19 40° E 16:03:19 40° E
Cosmos 1814 Rocket 4.5 16:05:00 58° NNW 16:05:00 58° NNW 16:09:24 10° NNE
FALCON 9 R/B 2.8 16:04:41 66° WSW 16:05:43 78° S 16:23:51 10° ESE
SL-16 R/B 3.4 16:07:21 31° E 16:07:21 31° E 16:12:05 10° NE
GP-B 4.2 16:10:54 10° NNE 16:14:10 42° NE 16:14:10 42° NE
Cosmos 841 Rocket 4.3 16:17:22 41° NW 16:17:22 41° NW 16:21:38 10° N
USA 215 3.1 16:17:21 63° SE 16:18:32 86° SW 16:25:08 10° NW
Cosmos 1400 Rocket 4.4 16:14:35 10° N 16:17:22 35° NNE 16:17:22 35° NNE
Cosmos-2242 4.5 16:15:26 10° N 16:17:50 33° NNW 16:17:50 33° NNW
CZ-2D R/B 2.1 16:24:56 10° NNE 16:29:55 72° ENE 16:29:55 72° ENE
Cosmos 2298 Rocket 4.4 16:25:11 10° N 16:30:25 57° ENE 16:31:04 53° E
Cosmos 2181 Rocket 3.9 16:24:34 10° N 16:31:01 75° W 16:31:23 72° WSW
Cosmos 2360 Rocket 4.0 16:30:15 18° ESE 16:31:27 20° E 16:35:24 10° NE
Cosmos 1980 Rocket 3.1 16:38:34 36° WNW 16:38:45 36° WNW 16:43:55 10° N
Cosmos 2154 Rocket 4.4 16:38:44 46° SE 16:40:13 57° E 16:46:18 10° NNE
SL-16 R/B 2.5 16:38:48 54° SE 16:40:15 77° ENE 16:46:26 10° N
Meteor 1-11 4.3 16:40:25 62° WNW 16:40:25 62° WNW 16:45:50 10° N
CZ-4C R/B 4.1 16:44:21 56° NNW 16:44:21 56° NNW 16:47:52 10° NNW
Cosmos 2058 4.2 16:46:43 35° E 16:46:43 35° E 16:50:31 10° NNE
Meteor 2-17 Rocket 4.4 16:46:11 62° SSE 16:47:16 78° E 16:53:23 10° N
STARLINK-1319 4.4 16:50:12 50° NNE 16:50:12 50° NNE 16:53:28 10° NE
Cosmos 1241 Rocket 4.3 16:50:35 64° WSW 16:51:26 75° WNW 16:57:40 10° NNE
Cosmos 1315 Rocket 3.9 16:48:41 10° N 16:52:23 38° ENE 16:52:25 38° E
STARLINK-1277 4.3 16:54:58 51° N 16:54:58 51° N 16:58:25 10° NE
BREEZE-M DEB (TANK) 3.2 16:56:07 58° WNW 16:56:48 67° NNW 17:07:50 10° NE
CBERS-1 4.1 16:53:24 10° NNE 16:58:30 65° ESE 16:59:12 58° SE
STARLINK-1276 4.3 16:59:46 50° NNW 16:59:46 50° NNW 17:03:23 10° NE
STARLINK-1306 4.4 17:00:44 47° NNW 17:00:44 47° NNW 17:04:31 10° NE
Cosmos 2263 Rocket 2.4 16:57:03 10° NNW 17:02:37 65° ENE 17:05:35 28° SE
STARLINK-1305 4.3 17:04:31 47° NNW 17:04:31 47° NNW 17:08:18 10° NE
USA 229 DEB 4.5 16:59:20 10° NNW 17:06:35 57° NE 17:14:06 10° SE
CRYOSAT 2 4.2 17:01:52 10° N 17:06:47 84° W 17:07:06 77° SW
NOSS 3-1 (C) 4.5 17:00:37 10° NNW 17:08:26 66° ENE 17:17:12 10° SE
STARLINK-1262 4.4 17:09:19 43° NW 17:09:19 43° NW 17:13:16 10° NNE
STARLINK-45 4.5 17:10:43 37° E 17:10:43 37° E 17:13:14 10° NE
STARLINK-70 4.4 17:12:10 37° E 17:12:10 37° E 17:14:42 10° NE
Nadezhda 3 Rocket 4.1 17:06:09 10° N 17:12:29 77° E 17:15:38 32° SSE
STARLINK-76 4.4 17:13:30 37° E 17:13:30 37° E 17:16:02 10° ENE
NPP 4.0 17:08:33 10° N 17:13:44 49° WNW 17:14:25 46° W
STARLINK-23 4.3 17:15:02 39° E 17:15:02 39° E 17:17:37 10° NE
ADEOS II 2.1 17:10:11 10° NNE 17:15:27 74° ESE 17:16:50 49° S
IRIDIUM 106 4.4 17:14:31 48° SSE 17:15:57 75° E 17:21:10 10° N
STARLINK-32 4.2 17:16:52 43° E 17:16:52 43° E 17:19:37 10° NE
Cosmos 2322 Rocket 2.1 17:15:15 57° SW 17:16:23 77° WNW 17:22:01 10° NNE
STARLINK-40 4.1 17:18:09 44° E 17:18:09 44° E 17:20:54 10° NE
In-Cosmos 22 Rocket 4.1 17:17:12 52° S 17:18:40 88° W 17:24:13 10° N
STARLINK-44 4.0 17:19:43 46° E 17:19:43 46° E 17:22:32 10° NE
STARLINK-37 3.8 17:21:28 54° E 17:21:28 54° E 17:24:25 10° NE
IDEFIX/ARIANE 42P 4.4 17:17:11 10° NE 17:21:23 24° E 17:25:18 11° SSE
STARLINK-1013 4.3 17:21:41 43° SE 17:21:41 43° SE 17:25:33 10° ENE
STARLINK-71 3.6 17:22:18 65° ESE 17:22:18 65° ESE 17:26:08 10° NE
STARLINK-36 3.8 17:22:49 52° E 17:22:49 52° E 17:25:47 10° NE
Cosmos 1076 Rocket 3.3 17:24:04 73° SSW 17:24:26 82° W 17:28:50 10° N
CZ-4B R/B 4.0 17:19:53 10° N 17:24:53 45° WNW 17:25:46 41° W
IRS-1C 4.2 17:19:33 10° NNE 17:24:54 73° ESE 17:26:47 41° S
STARLINK-63 3.5 17:26:18 65° ENE 17:26:18 65° ENE 17:29:29 10° NE
SL-4 R/B 4.2 17:22:15 10° NNW 17:26:31 31° NNE 17:30:35 10° E
STARLINK-1009 4.0 17:26:25 49° SE 17:26:32 49° SE 17:30:32 10° ENE
IRS-P3 Rocket 4.5 17:21:17 10° NNE 17:26:36 83° WNW 17:28:03 49° SSW
IRS-1D 3.6 17:22:06 10° N 17:27:18 65° WNW 17:28:27 50° SW
STARLINK-35 3.5 17:27:41 65° E 17:27:41 65° E 17:30:55 10° NE
Cosmos 1295 Rocket 4.5 17:26:24 42° SSW 17:28:41 74° W 17:34:59 10° N
STARLINK-51 3.3 17:29:25 71° E 17:29:25 71° E 17:32:44 10° NE
Cosmos 2151 4.0 17:28:42 28° SE 17:30:23 42° E 17:34:27 10° NNE
STARLINK-30 3.3 17:31:04 75° E 17:31:04 75° E 17:34:29 10° NE
STARLINK-1015 3.8 17:31:13 53° SSE 17:31:30 55° SE 17:35:33 10° NE
STARLINK-72 3.2 17:32:31 80° E 17:32:31 80° E 17:35:59 10° NE
Meteor 2-2 Rocket 4.3 17:26:31 10° NNW 17:32:32 76° W 17:35:17 34° S
STARLINK-50 3.2 17:32:36 79° SE 17:32:37 80° SE 17:36:25 10° NE
STARLINK-59 3.1 17:35:36 84° NNW 17:35:36 84° NNW 17:39:09 10° NE
STARLINK-1016 3.7 17:36:00 57° SSE 17:36:27 62° SE 17:40:33 10° NE
ARIANE 5 R/B 2.6 17:31:28 10° NNE 17:36:28 68° ESE 17:38:38 34° S
STARLINK-56 3.1 17:37:15 86° WNW 17:37:18 86° NW 17:40:55 10° NE
Cosmos 2237 4.2 17:36:12 39° SSW 17:38:25 87° ESE 17:44:10 10° NNE
STARLINK-73 3.1 17:38:42 82° WNW 17:38:47 83° NW 17:42:23 10° NE
STARLINK-68 3.2 17:38:49 72° WNW 17:39:01 75° NW 17:42:43 10° NE
STARLINK-38 3.1 17:40:36 74° W 17:40:48 78° NW 17:44:27 10° NE
STARLINK-1008 3.6 17:40:47 57° S 17:41:26 70° SE 17:45:33 10° NE
Cosmos 1892 3.2 17:42:02 43° WNW 17:42:02 43° WNW 17:45:32 10° N
STARLINK-65 3.1 17:42:00 71° W 17:42:14 76° NW 17:45:51 10° NE
Cosmos 2341 Rocket 4.0 17:39:15 32° SSW 17:42:28 82° W 17:48:50 10° N
Cosmos 1869 3.8 17:39:27 10° NNW 17:42:45 41° WNW 17:42:45 41° WNW
Resurs 1-4 Rocket 3.6 17:39:18 10° NNW 17:43:14 22° WNW 17:44:24 20° W
STARLINK-53 3.2 17:43:31 64° WNW 17:43:49 68° NW 17:47:25 10° NE
CZ-2C R/B 4.5 17:40:51 10° NE 17:44:09 28° E 17:46:31 15° SSE
STARLINK-24 3.6 17:45:26 53° WSW 17:46:12 70° NW 17:50:12 10° NE
STARLINK-1014 3.5 17:45:36 55° SSW 17:46:24 78° SE 17:50:32 10° NE
ERS-2 3.6 17:43:13 10° SE 17:46:35 37° ENE 17:50:00 10° N
Lacrosse 5 rocket 3.5 17:49:02 14° SSE 17:50:46 17° ESE 17:53:28 10° ENE
SL-16 R/B 3.3 17:49:13 25° W 17:51:09 31° WNW 17:56:11 10° N
CZ-3 R/B 4.4 17:20:57 23° SW 17:51:10 56° SSE 18:03:10 10° E
STARLINK-1025 3.5 17:50:21 50° SW 17:51:22 87° SE 17:55:32 10° NE
SL-19 R/B 4.1 17:47:29 10° NNE 17:51:38 83° WNW 17:52:34 49° SSW
GEOS 3 Rocket 3.5 17:47:06 10° SSE 17:52:12 68° WSW 17:57:26 10° NW
COSMOS 2428 4.2 17:48:02 11° SSE 17:52:46 31° ESE 17:57:40 10° NE
SL-24 DEB 4.2 17:51:08 10° N 17:55:44 79° E 17:58:30 24° S
STARLINK-1017 3.5 17:55:08 45° SW 17:56:21 84° NW 18:00:30 10° NE
Cosmos 1844 Rocket 4.2 17:52:33 10° N 17:57:42 37° ENE 18:02:48 10° SE
STARLINK-60 4.4 17:55:28 10° NNW 17:58:28 38° NE 18:01:30 10° ESE
Cosmos 2221 3.6 17:56:10 10° NNW 17:59:49 26° W 17:59:54 26° W
STARLINK-1023 3.6 17:59:54 39° WSW 18:01:20 76° NW 18:05:28 10° NE
Cosmos 1125 Rocket 4.2 17:59:10 10° NW 18:03:46 32° W 18:04:56 29° SW
Spot 4 Rocket 4.0 18:00:04 10° NNE 18:05:14 87° WNW 18:08:34 22° SSW
STARLINK-1007 3.7 18:04:42 35° WSW 18:06:19 68° NW 18:10:27 10° NE
CSL-04 DEB 4.5 18:03:10 16° S 18:06:35 82° WSW 18:10:59 10° NNW
SL-8 Rocket 4.0 18:03:05 22° SSW 18:07:15 70° W 18:13:31 10° N
Cosmos 2218 Rocket 4.0 18:03:56 18° S 18:08:46 83° W 18:15:12 10° N
CZ-2D R/B 4.1 18:07:38 10° NW 18:09:31 12° WNW 18:11:14 10° W
STARLINK-1048 3.8 18:09:28 31° WSW 18:11:17 61° NW 18:15:24 10° NE
COBE Rocket 3.9 18:07:30 15° S 18:11:40 69° W 18:16:47 10° NNW
Cosmos 2360 Rocket 2.6 18:12:02 25° SW 18:15:01 46° WNW 18:20:26 10° N
STARLINK-25 4.4 18:14:34 23° W 18:15:57 32° NW 18:19:04 10° NNE
Cosmos 1538 Rocket 4.0 18:12:24 21° SSW 18:16:00 84° WNW 18:21:24 10° NNE
STARLINK-1049 4.0 18:14:16 27° WSW 18:16:18 55° NW 18:20:21 10° NE
Cosmos 1825 2.8 18:19:06 28° WSW 18:20:22 37° W 18:23:53 10° N
STARLINK-1051 4.1 18:19:01 24° WSW 18:21:15 49° NW 18:25:17 10° NE
Cosmos 1408 4.1 18:22:51 20° W 18:23:33 21° WNW 18:26:25 10° NNW
Cosmos 2333 Rocket 2.4 18:19:07 15° SSW 18:23:51 73° ESE 18:29:30 10° NNE
SL-16 R/B 4.2 18:23:53 13° W 18:24:23 13° W 18:27:07 10° WNW
CZ-3A R/B 4.3 18:20:57 10° S 18:25:21 19° SE 18:34:56 10° E
STARLINK-1444 2.9 18:26:44 10° NW 18:29:00 53° NE 18:31:23 10° ESE
STARLINK-1452 2.9 18:26:59 10° NW 18:29:12 53° NE 18:31:32 10° ESE
Cosmos 2322 3.8 18:26:23 18° SSW 18:30:38 67° WNW 18:36:21 10° NNE
STARLINK-1436 (VISORSAT) 2.8 18:28:29 10° NW 18:30:44 57° NE 18:33:07 10° SE
STARLINK-1450 2.8 18:28:34 10° NW 18:30:48 57° NE 18:33:12 10° SE
STARLINK-1392 2.8 18:28:38 10° NW 18:30:53 57° NE 18:33:17 10° SE
STARLINK-1399 2.8 18:28:38 10° NW 18:30:53 58° NE 18:33:17 10° SE
STARLINK-1398 2.8 18:28:39 10° NW 18:30:54 58° NE 18:33:18 10° SE
STARLINK-1393 2.8 18:28:39 10° NW 18:30:54 58° NE 18:33:18 10° SE
STARLINK-1395 2.8 18:28:39 10° NW 18:30:55 58° NE 18:33:18 10° SE
STARLINK-1394 2.8 18:28:39 10° NW 18:30:55 58° NE 18:33:18 10° SE
STARLINK-1415 2.8 18:28:39 10° NW 18:30:55 58° NE 18:33:18 10° SE
STARLINK-1414 2.8 18:28:39 10° NW 18:30:55 58° NE 18:33:19 10° SE
STARLINK-1396 2.8 18:28:40 10° NW 18:30:55 58° NE 18:33:19 10° SE
STARLINK-1397 2.8 18:28:40 10° NW 18:30:55 58° NE 18:33:19 10° SE
STARLINK-1416 2.8 18:28:40 10° NW 18:30:56 58° NE 18:33:19 10° SE
STARLINK-1404 2.8 18:28:40 10° NW 18:30:56 58° NE 18:33:19 10° SE
STARLINK-1401 2.8 18:28:41 10° NW 18:30:56 58° NE 18:33:20 10° SE
STARLINK-1419 2.8 18:28:41 10° NW 18:30:56 58° NE 18:33:20 10° SE
STARLINK-1408 2.8 18:28:41 10° NW 18:30:57 58° NE 18:33:20 10° SE
STARLINK-1453 2.8 18:28:42 10° NW 18:30:57 58° NE 18:33:21 10° SE
STARLINK-1417 2.8 18:28:42 10° NW 18:30:57 58° NE 18:33:21 10° SE
STARLINK-1402 2.8 18:28:42 10° NW 18:30:57 58° NE 18:33:21 10° SE
STARLINK-1437 2.8 18:28:43 10° NW 18:30:58 58° NE 18:33:21 10° SE
STARLINK-1420 2.8 18:28:43 10° NW 18:30:58 58° NE 18:33:22 10° SE
STARLINK-1413 2.8 18:28:43 10° NW 18:30:59 58° NE 18:33:23 10° SE
STARLINK-1406 2.8 18:28:43 10° NW 18:30:59 58° NE 18:33:23 10° SE
STARLINK-1458 2.8 18:28:44 10° NW 18:30:59 58° NE 18:33:23 10° SE
STARLINK-1460 2.8 18:28:44 10° NW 18:30:59 58° NE 18:33:23 10° SE
STARLINK-1422 2.8 18:28:44 10° NW 18:31:00 58° NE 18:33:23 10° SE
STARLINK-1440 2.7 18:28:45 10° NW 18:31:00 58° NE 18:33:24 10° SE
STARLINK-1445 2.7 18:28:45 10° NW 18:31:01 58° NE 18:33:24 10° SE
STARLINK-1443 2.7 18:28:47 10° NW 18:31:02 58° NE 18:33:26 10° SE
STARLINK-1446 2.7 18:28:47 10° NW 18:31:02 58° NE 18:33:26 10° SE
STARLINK-1454 2.7 18:28:47 10° NW 18:31:02 58° NE 18:33:26 10° SE
STARLINK-1457 2.7 18:28:48 10° NW 18:31:03 58° NE 18:33:27 10° SE
STARLINK-1456 2.7 18:28:48 10° NW 18:31:03 58° NE 18:33:27 10° SE
STARLINK-1451 2.7 18:28:48 10° NW 18:31:03 58° NE 18:33:27 10° SE
STARLINK-1447 2.7 18:28:49 10° NW 18:31:04 58° NE 18:33:28 10° SE
STARLINK-1455 2.7 18:28:49 10° NW 18:31:04 58° NE 18:33:28 10° SE
STARLINK-1442 2.7 18:28:49 10° NW 18:31:04 58° NE 18:33:28 10° SE
STARLINK-1449 2.7 18:28:50 10° NW 18:31:05 58° NE 18:33:29 10° SE
STARLINK-1448 2.7 18:28:50 10° NW 18:31:05 58° NE 18:33:29 10° SE
STARLINK-1441 2.7 18:28:50 10° NW 18:31:05 58° NE 18:33:29 10° SE
STARLINK-1405 2.7 18:28:51 10° NW 18:31:06 58° NE 18:33:30 10° SE
STARLINK-1423 2.7 18:28:51 10° NW 18:31:06 58° NE 18:33:30 10° SE
STARLINK-1421 2.7 18:28:51 10° NW 18:31:06 58° NE 18:33:30 10° SE
STARLINK-1410 2.7 18:28:51 10° NW 18:31:06 58° NE 18:33:31 10° SE
STARLINK-1407 2.7 18:28:52 10° NW 18:31:07 58° NE 18:33:31 10° SE
STARLINK-1400 2.7 18:28:52 10° NW 18:31:07 58° NE 18:33:31 10° SE
STARLINK-1439 2.7 18:28:52 10° NW 18:31:07 58° NE 18:33:31 10° SE
STARLINK-1418 2.7 18:28:54 10° NW 18:31:08 58° NE 18:33:33 10° SE
STARLINK-1434 2.7 18:28:54 10° NW 18:31:08 58° NE 18:33:33 10° SE
STARLINK-1351 2.7 18:28:53 10° NW 18:31:08 58° NE 18:33:32 10° SE
STARLINK-1409 2.7 18:28:53 10° NW 18:31:08 58° NE 18:33:32 10° SE
STARLINK-1370 2.7 18:28:54 10° NW 18:31:09 58° NE 18:33:33 10° SE
STARLINK-1433 2.7 18:28:55 10° NW 18:31:10 58° NE 18:33:34 10° SE
STARLINK-1403 2.7 18:28:55 10° NW 18:31:10 58° NE 18:33:34 10° SE
STARLINK-1411 2.7 18:28:56 10° NW 18:31:12 58° NE 18:33:36 10° SE
STARLINK-1438 2.7 18:28:56 10° NW 18:31:12 58° NE 18:33:36 10° SE
STARLINK-1412 2.7 18:28:56 10° NW 18:31:12 58° NE 18:33:36 10° SE
STARLINK-1028 4.5 18:28:37 18° WSW 18:31:16 40° NW 18:35:11 10° NNE
BREEZE-M TANK 3.2 18:29:56 17° SSW 18:32:14 35° SE 18:35:03 10° ENE
Landsat 5 3.7 18:28:08 10° SSE 18:32:39 89° ENE 18:37:09 10° NNW
Cosmos 2219 Rocket 2.2 18:28:28 13° SSW 18:33:28 82° ESE 18:39:04 10° NNE
SL-08 R/B 4.2 18:34:34 17° SW 18:37:15 28° W 18:41:14 10° NW
CZ-4B R/B 3.8 18:34:55 10° SE 18:37:25 23° ENE 18:39:57 10° NNE
Cosmos 1933 3.6 18:33:36 10° N 18:37:37 72° E 18:41:37 10° SSE
Cosmos 2333 4.4 18:35:33 16° SW 18:39:58 58° WNW 18:45:31 10° NNE
Cosmos 1408 Rocket 3.5 18:37:53 11° SSW 18:42:02 69° W 18:46:20 10° N
Cosmos 1340 3.2 18:39:36 10° S 18:43:18 58° E 18:47:00 10° NNE
STARLINK-1027 4.3 18:40:07 13° SSW 18:43:32 47° SE 18:47:30 10° ENE
Cosmos 2263 Rocket 3.8 18:43:16 10° WNW 18:45:51 13° W 18:47:10 12° WSW
ATLAS 5 CENTAUR R/B 2.3 18:44:00 10° S 18:47:48 43° ESE 18:51:53 10° NE
Cosmos 2344 3.7 18:40:07 10° SSW 18:47:52 75° ESE 18:55:29 10° NE
STARLINK-1060 4.1 18:44:54 13° SSW 18:48:30 53° SE 18:52:32 10° NE
Meteor 2-3 Rocket 3.7 18:46:33 10° SSW 18:52:08 72° W 18:57:44 10° N
STARLINK-1030 4.0 18:49:41 12° SSW 18:53:27 59° SE 18:57:31 10° NE
ADEOS II 4.1 18:52:26 10° NW 18:54:28 12° WNW 18:56:29 10° W
Cosmos 1844 3.7 18:51:19 10° NNW 18:57:09 84° WSW 19:02:54 10° SSE
CZ-4C R/B 3.9 18:54:43 10° SSW 18:57:59 32° W 19:01:17 10° NNW
H-2A R/B 2.8 18:54:00 10° SSW 18:57:59 34° W 19:02:02 10° NNW
STARLINK-1020 3.8 18:54:27 11° SW 18:58:23 67° SE 19:02:30 10° NE
Shenzhou-11 Module 4.4 18:57:15 10° NNW 18:58:50 15° N 19:00:26 10° NE
USA 32 4.1 18:54:27 10° S 18:59:41 86° E 19:04:57 10° N
IDEFIX/ARIANE 42P 3.4 18:56:15 10° N 19:00:59 35° WNW 19:05:40 10° SW
deb Chang Zheng 4 3.6 18:57:58 10° N 19:02:13 67° WNW 19:06:25 10° SSW
STARLINK-1052 3.7 18:59:14 10° SW 19:03:21 75° SE 19:07:29 10° NE
Cosmos 1151 Rocket 3.4 18:59:38 10° NNW 19:03:48 44° W 19:07:58 10° SSW
Cosmos 1782 3.5 19:01:16 10° N 19:05:14 58° E 19:09:08 10° SSE
STARLINK-52 3.1 19:02:41 10° NW 19:05:53 80° NE 19:09:04 10° SE
SL-4 R/B 2.6 19:01:54 10° WNW 19:06:21 44° SW 19:10:32 10° SSE
CZ-2C R/B 2.6 19:02:24 10° NNE 19:07:37 89° ESE 19:12:45 10° SSW
NOSS 3-3 (A) 4.2 19:03:33 10° SSW 19:09:08 66° ESE 19:15:19 10° NE
NOSS 3-3 (C) 4.2 19:03:39 10° SSW 19:09:15 65° ESE 19:15:25 10° NE
Cosmos 1515 Rocket 3.5 19:05:33 10° N 19:09:54 72° W 19:14:12 10° S
STARLINK-1033 3.6 19:09:11 10° SW 19:13:20 87° NW 19:17:28 10° NE
ADEOS 3.6 19:09:26 10° NNE 19:14:41 90° ESE 19:19:54 10° SSW
ARIANE 5 R/B 4.5 19:13:05 10° NW 19:14:56 12° WNW 19:16:47 10° W
MSX 4.4 19:10:01 10° N 19:15:22 41° WNW 19:20:41 10° SW
Cosmos 1821 Rocket 4.2 19:12:00 10° SSW 19:18:15 60° W 19:24:29 10° N
